Saint Martin Island, Sint Maarten

11:36 PM AST on January 23, 2017 (GMT -0400)
Princess Juliana International

Weather History for TNCM - September, 2013

Change the Weather History Date:

Sunday, September 29, 2013

  Actual Average Record
Temperature  
Mean Temperature 85 °F -  
Max Temperature 88 °F 86 °F 91 °F (2003)
Min Temperature 82 °F 76 °F 68 °F (2002)
Cooling Degree Days 20    
Growing Degree Days 35 (Base 50)    
Moisture  
Dew Point 76 °F    
Average Humidity 73    
Maximum Humidity 79    
Minimum Humidity 59    
Precipitation  
Precipitation 0.00 in 0.14 in - ()
Sea Level Pressure  
Sea Level Pressure 29.97 in    
Wind  
Wind Speed 8 mph ()    
Max Wind Speed 14 mph    
Max Gust Speed -    
Visibility 6.7 miles    
Events Rain    
Averages and records for this station are not official NWS values.
T = Trace of Precipitation, MM = Missing Value Source: Averaged Metar Reports

Daily Weather History Graph

Daily Weather History Graph

Search for Another Location

Airport or City:

Trip Planner

Search our weather history database for the weather conditions in past years. The results will help you decide how hot, cold, wet, or windy it might be!

Date:

Astronomy

Sep. 29, 2013 Rise Set
Actual Time 6:02 AM AST 6:02 PM AST
Civil Twilight 5:40 AM AST 6:24 PM AST
Nautical Twilight 5:15 AM AST 6:49 PM AST
Astronomical Twilight 4:50 AM AST 7:14 PM AST
Moon 1:18 AM AST (9/29) 2:20 PM AST (9/29)
Length of Visible Light 12h 43m
Length of Day
11h 59m
Waning Crescent, 27% of the Moon is Illuminated
Sep 29
Waning Crescent
Oct 4
New
Oct 11
First Quarter
Oct 18
Full
Oct 26
Last Quarter

Hourly Weather History & Observations

Time (AST) Temp. Heat Index Dew Point Humidity Pressure Visibility Wind Dir Wind Speed Gust Speed Precip Events Conditions
12:00 AM 84.2 °F 94.1 °F 77.0 °F 79% 29.98 in 6.2 mi ESE 4.6 mph - N/A   Scattered Clouds
1:00 AM 84.2 °F 94.1 °F 77.0 °F 79% 29.98 in 6.2 mi ESE 8.1 mph - N/A   Scattered Clouds
2:00 AM 83 °F - 76 °F 75% 29.95 in 16 mi ESE 8.1 mph - -   Scattered Clouds
2:00 AM 84.2 °F 94.1 °F 77.0 °F 79% 29.95 in 6.2 mi ESE 8.1 mph - N/A   Partly Cloudy
3:00 AM 84.2 °F 94.1 °F 77.0 °F 79% 29.92 in 6.2 mi East 9.2 mph - N/A   Partly Cloudy
4:00 AM 84.2 °F 94.1 °F 77.0 °F 79% 29.92 in 6.2 mi East 6.9 mph - N/A   Partly Cloudy
5:00 AM 82.4 °F 89.5 °F 75.2 °F 79% 29.95 in 6.2 mi East 6.9 mph - N/A   Partly Cloudy
6:00 AM 82.4 °F 89.5 °F 75.2 °F 79% 29.98 in 6.2 mi East 6.9 mph - N/A   Scattered Clouds
7:00 AM 84.2 °F 92.3 °F 75.2 °F 74% 29.98 in 6.2 mi ESE 6.9 mph - N/A   Scattered Clouds
8:00 AM 86 °F - 76 °F 65% 30.01 in 31 mi ESE 8.1 mph - -  
8:00 AM 86.0 °F 96.9 °F 77.0 °F 74% 29.98 in 6.2 mi ESE 8.1 mph - N/A   Scattered Clouds
9:00 AM 86.0 °F 95.1 °F 75.2 °F 70% 30.01 in 6.2 mi SE 10.4 mph - N/A   Scattered Clouds
10:00 AM 86.0 °F 95.1 °F 75.2 °F 70% 30.01 in 6.2 mi SE 10.4 mph - N/A   Scattered Clouds
11:00 AM 88 °F - 76 °F 60% 30.01 in 31 mi SE 11.5 mph - -   Mostly Cloudy
11:00 AM 87.8 °F 99.7 °F 77.0 °F 70% 30.01 in 6.2 mi SE 11.5 mph - N/A   Mostly Cloudy
12:00 PM 87.8 °F 99.7 °F 77.0 °F 70% 29.98 in 6.2 mi SE 12.7 mph - N/A Rain Light Rain Showers
1:00 PM 87.8 °F 99.7 °F 77.0 °F 70% 29.95 in 6.2 mi SE 12.7 mph - N/A   Scattered Clouds
2:00 PM 88 °F - 76 °F 61% 29.94 in 31 mi SE 13.8 mph - -   Partly Cloudy
2:00 PM 87.8 °F 97.6 °F 75.2 °F 66% 29.92 in 6.2 mi SE 13.8 mph - N/A   Scattered Clouds
3:00 PM 87.8 °F 99.7 °F 77.0 °F 70% 29.92 in 6.2 mi ESE 11.5 mph - N/A   Partly Cloudy
4:00 PM 87.8 °F 99.7 °F 77.0 °F 70% 29.92 in 6.2 mi ESE 11.5 mph - N/A   Partly Cloudy
5:00 PM 87 °F - 74 °F 59% 29.92 in 31 mi ESE 10.4 mph - -   Scattered Clouds
5:00 PM 86.0 °F 95.1 °F 75.2 °F 70% 29.92 in 6.2 mi ESE 10.4 mph - N/A   Partly Cloudy
6:00 PM 86.0 °F 96.9 °F 77.0 °F 74% 29.92 in 6.2 mi ESE 10.4 mph - N/A   Partly Cloudy
7:00 PM 84.2 °F 94.1 °F 77.0 °F 79% 29.95 in 6.2 mi ESE 9.2 mph - N/A   Scattered Clouds
8:00 PM 85 °F - 76 °F 69% 29.98 in 31 mi ESE 9.2 mph - -  
8:00 PM 84.2 °F 94.1 °F 77.0 °F 79% 29.98 in 6.2 mi ESE 9.2 mph - N/A   Partly Cloudy
9:00 PM 84.2 °F 94.1 °F 77.0 °F 79% 29.98 in 6.2 mi ESE 10.4 mph - N/A   Partly Cloudy
10:00 PM 84.2 °F 94.1 °F 77.0 °F 79% 30.01 in 6.2 mi ESE 10.4 mph - N/A   Scattered Clouds
11:00 PM 85 °F - 77 °F 71% 30.01 in 9 mi ESE 9.2 mph - - Rain Light Rain Showers
11:00 PM 84.2 °F 94.1 °F 77.0 °F 79% 30.01 in 6.2 mi ESE 9.2 mph - N/A Rain Light Rain Showers